CAPE
417 472 1285 918 1141 860 688 789 786 629 807 826 695 658 621 709 805 874 947 1059 963 1234 1807 2462 2282 1905 2473 2403 2527 1849 2244 2125 1840 1748 2012 1442 1605 1784 1435 1462 1495 1394 1158
457 744 650 808 365 768 684 502 741 643 625 529 506 505 289 313 636 794 733 967 661 604 743 1658 2629 2276 2430 2457 2520 2099 1906 1894 1386 2015 1558 1597 1746 1325 1461 1567 1551 1262 1021
956 1178 346 595 452 541 796 799 466 739 767 592 495 519 326 371 376 723 1033 1242 1420 1425 1253 1872 2451 2226 2215 2737 2192 1920 1898 1853 1151 1990 1427 1811 1483 1386 1443 1424 1387 1252 547
1106 1177 800 442 520 609 658 514 557 564 626 726 843 613 822 915 1157 1527 1680 1717 1676 1567 1958 1907 2350 1794 1452 2055 2195 2157 1933 1712 1379 1359 1377 1794 1612 1632 1620 1493 1297 820 404
668 1281 1024 433 936 400 704 741 856 1218 720 766 890 979 1087 1116 1080 1025 1370 1682 1543 1490 1534 1767 1454 1464 1525 1870 1910 2063 1822 1614 1501 1474 1585 1593 1685 1633 1558 1401 1184 796 374
601 1074 1018 1014 813 848 1028 960 1171 673 681 730 1081 864 1198 992 1083 1157 1190 1395 1445 1533 1327 1628 1674 1174 911 1432 1893 1974 1789 1364 1569 1676 1875 1800 1684 1657 1368 1409 1201 848 449
657 869 887 789 1199 941 1076 1209 1196 903 742 1046 667 606 687 598 1060 1177 1175 1153 1391 1694 1120 1293 1642 1377 1164 806 1043 1761 1632 1541 1812 2327 2005 1841 1778 1731 1338 1249 1196 984 565
1209 1229 981 866 980 1064 1329 1397 1382 780 450 1130 1090 996 605 711 578 439 508 1058 1187 1278 1405 1303 1557 1655 1469 1139 1164 929 920 783 1256 1840 2125 2312 1666 1809 1311 1033 1071 916 721
1547 1438 1120 1210 772 943 818 1218 1093 429 323 901 1467 612 433 445 317 206 278 670 984 1013 1099 1196 1369 1598 1752 1527 1114 986 797 651 697 1108 1472 1799 1857 1809 1599 987 951 798 728
1574 1494 1040 1428 1462 622 885 1035 808 752 380 302 1085 993 840 701 265 264 674 450 508 490 821 949 835 1180 1756 1712 1543 1544 1416 997 741 590 823 1185 1642 1596 1656 1154 1070 823 683
1503 1420 1359 1269 1624 1458 754 1390 458 1159 658 232 943 1153 1038 849 380 303 772 724 502 727 735 694 892 991 1256 1633 1808 1838 1476 1031 930 886 879 915 1061 1516 1632 1567 1245 1098 860
1552 1452 1619 1340 1505 1556 1284 1299 1057 994 544 799 668 1086 890 694 643 905 1122 895 778 851 815 749 952 1210 1325 1422 1413 1383 1545 1148 886 891 925 1026 1048 1173 1509 1815 1725 1574 1321
1447 1148 1686 1718 1091 1552 1537 1343 1353 1241 1378 947 1015 1013 1117 799 773 1200 1032 870 657 588 859 959 1159 1220 1352 1492 1512 1240 1131 942 817 762 860 930 980 1000 1086 1306 1485 1842 1772
1328 1487 1545 1448 1202 1187 1412 1576 1440 1387 1177 1052 1105 1375 1194 885 948 1083 1328 983 806 540 599 1125 837 1075 1181 1283 1499 1364 1433 1025 629 581 561 723 963 1020 1062 1092 1175 1211 1306
1651 1641 1745 1834 1505 1326 1410 1327 1302 1118 1177 951 1018 1279 1220 279 129 583 1214 1228 908 587 554 849 459 928 804 1102 1471 1594 1510 1348 948 632 581 619 796 964 1070 1064 941 929 962
1392 1604 1793 1787 1884 1786 1646 1553 1013 1269 1259 927 811 1133 1605 610 274 65 1043 1160 973 705 408 255 201 148 549 457 1255 1718 1811 1717 1449 1019 759 670 744 880 856 801 786 781 763
1052 1147 1392 1923 2072 1937 1825 1947 1492 963 1218 1477 1149 957 1482 1139 925 1136 1083 958 736 716 535 182 243 574 1420 1272 914 1835 1958 1853 1567 1267 902 713 370 270 534 544 469 398 382
1613 1745 1721 1319 1638 2067 1943 1798 1888 1403 1189 1117 1518 1428 1032 1345 1269 1073 1242 1021 1343 986 767 698 413 354 939 809 1309 1990 1507 863 941 1148 970 659 395 318 334 301 286 250 170
1197 1854 2183 2169 1911 1845 2035 1904 1804 1674 1548 1103 1206 1210 1436 1243 1353 1202 1090 670 855 1238 1022 999 699 708 653 832 1025 1445 1406 1315 1393 1097 834 704 449 340 216 132 87 34 0
211 434 1035 1613 2048 1791 1736 1774 1739 1788 1832 1521 1251 1066 1261 1102 1169 1261 1254 1220 1027 958 980 1049 973 627 631 627 794 971 799 938 679 591 564 667 821 327 8 0 0 0 0
82 83 195 433 1278 2222 1631 1223 1056 981 1607 1540 1509 1379 1510 1265 1107 1223 1220 1306 1227 997 621 532 521 508 539 552 406 753 743 768 881 977 919 932 1203 966 361 0 0 0 0
262 155 139 145 354 1111 1145 1099 927 719 675 1205 1599 1735 1671 1063 846 818 593 527 965 1162 1119 452 278 368 950 951 598 570 531 699 893 551 881 849 582 552 775 871 124 0 0
105 180 220 147 230 555 370 725 287 0 0 7 662 1184 1397 1295 1322 1403 629 302 375 490 737 1152 1047 835 837 880 962 944 875 855 923 568 1037 733 564 432 787 55 0 0 0
0 0 35 159 199 358 395 199 170 46 127 159 412 337 472 736 1085 1334 1344 1182 853 751 537 631 849 971 1136 1143 1146 1133 1070 1020 1191 950 1016 731 497 667 922 958 0 0 0
0 0 0 0 114 205 402 105 22 95 56 63 152 119 36 8 87 665 1347 1590 1420 1265 999 727 722 842 959 913 944 1186 1066 468 478 620 1120 981 606 482 718 830 0 0 0
0 0 2 0 0 44 327 275 109 99 164 244 180 142 2 0 0 0 298 1013 1361 1178 1149 1183 889 650 492 814 566 958 669 478 687 664 662 926 457 635 592 436 150 0 0
CIN
-1 -0 -0 -6 -0 -1 -0 -1 -0 -0 -0 -0 -0 -1 -3 -1 -1 -1 -0 -48 -80 -77 -47 -16 -13 -15 -0 -0 -0 -9 -1 -3 -0 -0 -0 -7 -2 -1 -4 -3 -1 -0 -2
-0 -0 -17 -15 -4 -0 -1 -0 -1 -1 -1 -1 -0 -8 -28 -21 -14 -17 -5 -6 -72 -95 -94 -47 -4 -6 -0 -2 -0 -4 -5 -4 -8 -0 -0 -0 -3 -19 -7 -3 -1 -1 -7
-0 -0 -35 -18 -25 -0 -1 -0 -6 -0 -0 -1 -1 -4 -22 -23 -21 -21 -17 -1 -8 -49 -69 -44 -11 -9 -3 -0 -3 -5 -4 -5 -22 -1 -2 -0 -12 -17 -9 -5 -3 -8 -98
-0 -0 -2 -21 -3 -0 -0 -1 -0 -0 -0 -1 -1 -0 -6 -1 -1 -6 -0 -1 -0 -1 -46 -36 -12 -24 -31 -4 -3 -2 -2 -2 -8 -13 -16 -1 -4 -5 -6 -13 -19 -64 -147
-0 -0 -1 -3 -0 -0 -0 -0 -2 -1 -1 -2 -2 -1 -1 -1 -1 -1 -1 -1 -0 -7 -2 -38 -43 -46 -42 -11 -9 -2 -3 -3 -4 -7 -7 -10 -4 -10 -15 -23 -36 -86 -176
-0 -0 -0 -0 -3 -1 -0 -1 -0 -22 -1 -2 -1 -1 -1 -2 -1 -2 -1 -0 -1 -8 -6 -1 -12 -44 -87 -50 -17 -5 -4 -22 -8 -4 -2 -3 -5 -10 -41 -16 -32 -84 -160
-3 -0 -3 -1 -1 -6 -0 -0 -2 -7 -3 -9 -23 -2 -1 -16 -17 -3 -9 -5 -2 -3 -1 -4 -2 -1 -23 -79 -82 -31 -25 -24 -5 -0 -2 -3 -3 -3 -37 -31 -27 -55 -139
-0 -0 -0 -3 -1 -2 -0 -0 -2 -13 -24 -1 -2 -0 -1 -1 -18 -34 -31 -13 -9 -2 -2 -4 -1 -5 -9 -3 -24 -93 -99 -112 -67 -21 -6 -1 -9 -3 -34 -61 -48 -68 -106
-1 -1 -1 -0 -17 -9 -8 -1 -2 -19 -31 -5 -12 -16 -11 -1 -1 -38 -82 -41 -15 -15 -12 -11 -18 -14 -15 -12 -32 -64 -106 -137 -134 -85 -47 -22 -13 -9 -12 -61 -66 -90 -98
-3 -1 -12 -1 -0 -29 -1 -0 -5 -10 -23 -28 -5 -17 -20 -22 -5 -2 -17 -43 -39 -52 -19 -19 -41 -38 -18 -19 -17 -22 -56 -90 -123 -146 -115 -74 -38 -29 -17 -49 -52 -80 -104
-3 -0 -15 -5 -0 -0 -0 -0 -47 -2 -11 -36 -4 -1 -6 -1 -38 -26 -3 -1 -44 -36 -35 -40 -24 -25 -13 -5 -1 -8 -49 -103 -113 -112 -115 -102 -87 -57 -42 -33 -51 -61 -81
-1 -3 -1 -19 -3 -0 -3 -1 -13 -4 -29 -11 -16 -2 -3 -1 -1 -1 -1 -1 -0 -2 -6 -23 -18 -1 -7 -9 -22 -30 -54 -90 -115 -114 -108 -92 -93 -84 -59 -31 -35 -36 -42
-3 -9 -1 -5 -10 -3 -2 -2 -1 -2 -3 -5 -12 -12 -13 -26 -4 -0 -1 -1 -1 -1 -3 -1 -3 -10 -4 -10 -4 -48 -81 -108 -121 -122 -111 -101 -108 -99 -87 -67 -44 -17 -14
-2 -1 -0 -6 -12 -3 -0 -1 -1 -1 -1 -2 -6 -1 -19 -20 -6 -3 -1 -0 -4 -1 -3 -1 -2 -2 -3 -2 -8 -44 -34 -86 -122 -138 -138 -126 -112 -100 -95 -81 -66 -53 -48
-2 -6 -20 -10 -23 -3 -0 -0 -1 -1 -5 -0 -1 -0 -19 -77 -105 -26 -2 -1 -1 -1 -1 -11 -3 -4 -4 -2 -7 -16 -27 -36 -84 -116 -125 -145 -132 -111 -102 -92 -93 -82 -78
-51 -41 -18 -10 -11 -11 -8 -2 -1 -0 -0 -2 -2 -6 -6 -62 -86 -96 -1 -2 -2 -1 -2 -2 -1 -3 -4 -3 -10 -17 -3 -30 -60 -77 -102 -116 -117 -113 -103 -97 -93 -85 -90
-73 -87 -78 -32 -17 -20 -9 -1 -7 -5 -1 -1 -2 -1 -0 -23 -42 -28 -1 -1 -3 -3 -1 -2 -3 -0 -3 -6 -4 -0 -1 -0 -4 -49 -78 -98 -112 -134 -109 -104 -105 -110 -110
-39 -27 -27 -57 -26 -12 -27 -7 -0 -1 -1 -1 -0 -1 -1 -3 -1 -18 -17 -24 -3 -1 -1 -1 -1 -3 -4 -3 -1 -0 -3 -2 -3 -53 -52 -79 -118 -141 -130 -140 -139 -142 -155
-40 -8 -1 -0 -19 -15 -1 -2 -1 -1 -1 -1 -2 -6 -2 -1 -2 -3 -14 -8 -2 -10 -4 -1 -1 -4 -2 -1 -2 -3 -4 -0 -1 -16 -50 -72 -110 -148 -166 -185 -210 -210 -0
-130 -97 -36 -11 -1 -5 -0 -1 -1 -1 -1 -1 -9 -6 -3 -2 -2 -2 -1 -3 -7 -1 -5 -5 -2 -2 -3 -2 -2 -1 -2 -2 -2 -2 -10 -20 -70 -155 -165 -0 -0 -0 -0
-227 -173 -94 -53 -5 -0 -0 -44 -20 -53 -15 -2 -2 -4 -0 -1 -7 -11 -2 -2 -3 -6 -6 -1 -1 -1 -1 -2 -2 -2 -2 -2 -1 -2 -1 -3 -12 -32 -71 -0 -0 -0 -0
-79 -124 -123 -76 -25 -6 -59 -30 -45 -114 -108 -85 -26 -1 -1 -10 -36 -33 -77 -75 -5 -5 -8 -6 -1 -3 -1 -3 -2 -2 -1 -2 -1 -4 -3 -1 -2 -2 -3 -10 -138 -0 -0
-132 -91 -71 -90 -34 -9 -95 -75 -154 -0 -0 -248 -56 -40 -24 -7 -31 -27 -101 -126 -95 -66 -35 -8 -10 -14 -6 -4 -4 -3 -2 -3 -3 -2 -8 -1 -2 -3 -0 -31 -0 -0 -0
-0 -0 -67 -59 -32 -1 -27 -75 -69 -121 -85 -132 -49 -113 -41 -8 -1 -8 -14 -32 -50 -44 -90 -57 -26 -24 -8 -2 -2 -2 -2 -3 -6 -2 -1 -1 -3 -3 -1 -6 -0 -0 -0
-0 -0 -0 -0 -34 -9 -8 -100 -169 -67 -159 -181 -132 -149 -179 -25 -83 -4 -0 -0 -2 -13 -24 -67 -60 -21 -14 -8 -9 -2 -1 -2 -1 -2 -4 -1 -2 -1 -2 -0 -6 -0 -0
-0 -0 -2 -0 -0 -20 -10 -7 -41 -27 -43 -47 -33 -41 -8 -0 -0 -0 -4 -0 -0 -1 -1 -0 -29 -55 -51 -12 -35 -6 -1 -1 -1 -4 -15 -3 -2 -2 -1 -1 -17 -0 -0
Wind_Speed
20 20 18 18 17 18 18 19 19 18 19 21 21 20 21 21 21 21 20 16 19 19 19 19 19 19 19 19 18 18 17 18 19 20 20 20 19 19 20 20 19 19 19
17 19 21 18 19 18 19 19 19 19 20 20 20 21 21 21 21 21 21 18 17 18 19 19 20 20 20 19 19 19 18 18 19 19 20 19 19 19 19 19 18 18 18
18 18 10 8 22 20 20 20 20 20 20 19 19 20 21 20 21 21 21 21 17 15 18 19 19 19 20 20 19 19 19 18 19 19 19 19 19 19 19 18 18 18 18
20 16 8 22 24 22 20 20 18 19 20 20 19 20 21 21 20 20 21 21 20 20 15 19 19 19 20 21 20 20 20 19 19 18 19 19 19 19 19 18 17 15 18
22 18 18 17 19 18 15 8 11 11 19 17 20 20 21 21 21 21 22 22 21 21 20 14 18 19 20 20 20 20 19 19 19 19 19 19 19 19 19 19 14 11 10
23 21 20 19 18 14 15 12 10 12 18 17 21 21 21 21 21 22 22 22 22 20 20 20 17 19 19 20 20 20 19 19 19 19 19 18 18 18 17 16 12 11 11
25 25 22 21 18 22 18 18 11 7 18 17 19 21 21 21 22 22 23 23 23 21 20 19 21 21 17 18 19 19 19 19 19 19 19 17 18 19 19 18 15 13 13
20 26 25 24 23 21 19 20 16 14 22 17 19 19 18 8 19 22 24 24 25 23 22 22 22 21 21 18 15 16 17 18 18 18 19 16 19 17 18 18 18 16 16
14 13 5 5 8 22 23 19 17 14 19 22 19 15 16 10 23 15 20 21 26 25 25 24 24 22 19 18 11 13 14 16 17 18 18 19 17 16 16 16 15 15 15
11 10 6 3 4 4 11 20 24 19 14 25 20 20 21 22 21 19 14 17 22 25 25 25 25 22 18 17 15 22 5 15 16 17 17 17 16 15 15 15 15 14 13
6 5 9 5 4 4 3 24 27 24 18 19 23 17 15 12 11 20 20 14 19 22 23 24 25 19 15 16 19 19 18 20 20 19 18 17 16 16 15 14 14 14 12
6 5 5 7 6 2 6 18 25 21 19 16 22 19 18 16 17 18 19 16 17 16 17 19 20 19 15 18 19 20 14 17 17 16 16 16 15 13 13 12 10 9 8
9 3 2 3 4 4 2 2 8 17 21 21 16 14 15 18 17 19 19 18 19 16 15 15 13 15 17 20 11 9 10 13 12 12 12 12 11 9 9 10 9 7 5
10 9 8 6 1 2 2 1 1 4 7 8 13 14 12 18 19 21 21 20 22 19 14 16 14 13 16 19 19 6 4 6 6 7 11 9 6 5 4 4 4 4 5
23 13 12 10 2 3 2 2 4 6 11 7 6 7 7 14 22 26 25 24 25 25 19 15 20 14 20 18 18 19 5 1 3 4 5 6 6 4 3 2 0 0 2
3 11 13 13 9 8 7 6 7 6 8 9 8 5 5 10 22 27 30 28 27 28 29 23 20 20 22 25 17 21 19 13 8 4 1 1 1 3 5 5 5 5 5
5 5 16 18 13 13 14 12 11 12 10 9 9 10 8 5 5 6 34 29 29 29 30 29 24 23 23 25 24 21 18 16 12 5 4 3 6 7 9 9 9 10 11
14 6 9 27 25 20 15 17 17 16 14 14 12 11 10 10 8 8 25 31 32 29 31 32 31 28 23 24 23 23 24 25 22 7 8 8 8 8 10 10 11 13 12
24 25 27 25 32 30 26 21 22 28 27 18 17 15 13 12 11 12 12 17 27 29 28 33 32 27 25 24 24 23 23 23 20 14 13 12 11 12 11 12 13 13 14
30 31 30 31 32 29 29 28 29 25 25 23 17 17 15 15 14 13 14 16 21 25 26 31 31 28 26 25 25 26 25 17 16 15 16 14 13 14 14 14 13 13 14
32 31 32 32 31 26 23 24 16 25 35 19 18 17 16 15 16 16 15 17 21 20 24 26 28 29 28 25 23 23 20 20 19 17 17 15 10 11 12 13 14 13 14
32 32 32 33 34 31 27 15 13 12 12 16 17 18 17 15 16 16 17 17 19 20 24 25 25 25 28 27 25 25 24 22 21 16 13 16 14 14 16 10 11 10 13
32 33 34 34 34 31 24 21 17 19 17 19 17 17 16 16 16 17 18 19 19 20 20 22 25 31 32 25 26 23 19 23 23 22 16 20 20 14 13 13 10 10 10
32 34 34 35 36 34 27 22 21 23 25 27 27 28 26 23 22 18 21 21 23 22 21 22 23 26 27 29 24 23 27 26 26 24 22 23 21 15 12 15 13 11 9
32 34 36 36 37 37 30 27 24 30 35 32 31 35 39 38 37 30 26 26 24 25 24 22 24 27 25 26 24 22 22 22 25 21 17 14 19 17 16 15 12 10 8
32 32 35 38 39 39 36 30 27 30 30 30 33 36 36 39 39 40 33 37 33 29 27 27 26 28 31 30 27 22 24 25 21 25 23 13 16 18 17 11 14 13 10
Wind_Direction
186 194 186 195 221 198 190 205 183 162 173 204 202 201 195 194 200 193 196 139 172 188 190 191 188 183 188 180 180 182 183 196 213 219 245 246 251 261 261 257 255 261 261
167 207 242 224 241 246 204 212 187 181 180 194 194 198 201 204 191 194 196 178 166 183 197 197 188 184 190 182 185 188 184 192 208 214 227 230 242 248 246 240 231 240 256
175 198 43 94 246 245 223 191 201 190 196 195 197 198 194 192 197 193 200 204 174 169 186 187 177 178 187 185 180 191 190 188 200 207 213 223 230 237 241 231 218 232 240
207 182 89 249 232 240 210 182 157 161 190 200 202 199 203 207 193 199 208 210 202 208 141 173 172 174 183 189 190 194 200 195 200 198 203 213 224 229 223 223 205 174 226
207 198 225 258 246 257 283 84 335 323 178 233 212 216 218 219 210 201 207 216 205 208 212 131 165 178 182 184 187 188 193 194 199 199 202 208 215 226 226 224 164 125 36
212 219 229 226 257 287 287 323 3 116 182 171 246 225 236 223 219 214 210 205 201 192 192 194 160 179 177 184 186 186 185 189 194 200 202 202 208 204 196 189 152 130 136
216 230 229 226 184 240 280 283 339 65 178 183 216 208 215 216 222 218 219 212 209 193 188 182 199 204 158 168 177 182 185 192 196 204 204 192 203 207 208 198 177 161 165
188 220 227 238 228 205 284 282 300 313 231 173 200 228 215 138 280 226 216 208 223 210 201 191 201 198 201 178 157 163 173 181 183 191 204 186 206 191 201 198 194 186 193
161 160 112 26 257 263 221 291 296 309 280 241 283 308 318 2 290 325 282 212 225 216 214 215 209 200 184 182 143 149 162 173 180 188 195 199 188 185 189 187 182 178 184
148 146 135 79 31 93 331 299 275 290 305 249 281 287 278 291 321 296 312 284 259 234 229 224 218 192 174 177 168 208 48 165 171 178 185 187 182 177 180 182 185 181 177
101 106 153 147 134 130 121 282 268 276 293 284 270 314 324 357 30 267 265 301 271 255 247 238 234 176 158 168 186 183 177 187 190 185 183 184 184 181 181 183 184 182 178
64 97 128 165 159 119 146 199 265 280 290 307 281 306 307 318 319 283 263 281 274 281 271 268 260 261 145 166 184 229 152 169 174 177 180 180 179 177 181 179 171 170 170
4 64 88 148 179 177 147 89 325 290 288 292 314 333 319 298 310 284 272 274 265 284 284 289 305 292 285 271 241 121 139 157 159 165 172 172 166 164 172 181 183 179 173
351 355 351 339 278 262 216 293 322 319 317 317 315 321 334 294 294 271 265 271 262 273 299 288 299 311 303 283 293 10 84 123 128 142 162 159 149 145 148 158 166 175 188
305 328 330 331 304 207 254 259 291 301 303 307 315 323 332 310 284 269 267 268 268 268 281 299 286 312 295 307 313 309 342 359 149 157 158 166 174 173 172 170 141 249 244
334 329 323 318 318 311 292 278 283 282 288 290 292 290 301 311 280 271 261 267 273 268 261 285 295 297 298 292 321 310 311 319 327 328 289 199 208 331 337 336 330 315 309
335 326 313 311 308 304 301 296 282 283 282 280 273 282 282 273 279 280 248 267 268 271 270 278 292 294 299 297 297 311 316 318 323 334 330 321 324 324 327 329 328 325 319
332 311 316 303 297 300 295 292 292 291 281 278 275 273 257 271 252 253 280 271 268 275 273 274 279 287 300 298 301 301 299 299 309 342 336 330 321 316 316 319 322 323 321
325 318 310 311 295 292 291 288 287 285 286 287 282 275 269 263 252 260 268 279 278 278 281 275 280 290 295 298 300 303 302 304 312 323 322 319 318 321 325 325 326 328 327
315 312 311 305 300 297 291 289 285 287 288 287 283 281 267 259 256 257 262 267 278 280 281 277 281 287 292 296 298 298 298 310 317 319 322 322 323 323 325 326 329 329 329
312 310 307 305 305 303 297 288 279 289 282 286 282 281 277 264 254 257 264 268 274 274 279 280 281 284 288 291 295 302 305 308 314 316 316 318 325 331 326 325 326 327 329
310 308 305 303 300 300 299 281 263 247 260 234 266 277 274 270 269 251 244 257 268 268 273 278 280 282 285 288 292 294 300 304 308 316 315 320 321 319 322 325 328 330 332
308 305 302 301 299 299 295 289 273 281 271 275 259 270 263 267 265 269 253 251 252 249 253 270 274 277 282 287 288 294 297 299 299 306 317 316 320 318 326 334 332 332 332
307 304 300 298 296 296 292 286 276 282 286 285 281 281 280 280 278 273 274 268 266 265 255 258 267 275 278 280 285 289 291 294 296 299 304 309 318 323 329 331 336 334 331
308 304 299 296 293 291 291 287 283 286 285 284 280 278 274 278 280 281 276 270 268 269 269 259 265 273 273 275 280 286 288 292 294 297 304 310 315 321 324 328 333 337 328
306 306 301 294 288 287 287 285 282 284 284 285 284 282 279 278 278 276 279 269 269 271 271 272 270 271 271 271 273 272 281 286 291 293 296 302 313 318 324 330 335 341 337